Weather History for Nausori, Fiji

Change the Weather History Date:

Wednesday, January 7, 2004

  Actual Average Record
Temperature  
Mean Temperature 78 °F -  
Max Temperature 86 °F - - ()
Min Temperature 71 °F - - ()
Cooling Degree Days 14    
Growing Degree Days 28 (Base 50)    
Moisture  
Dew Point 69 °F    
Average Humidity 76    
Maximum Humidity 94    
Minimum Humidity 55    
Precipitation  
Precipitation 0.00 in - - ()
Sea Level Pressure  
Sea Level Pressure 29.67 in    
Wind  
Wind Speed 2 mph ()    
Max Wind Speed 12 mph    
Max Gust Speed -    
T = Trace of Precipitation, MM = Missing Value Source: Averaged Metar Reports

Daily Weather History Graph

Daily Weather History Graph

Search for Another Location

Airport:

Trip Planner

Search our weather history database for the weather conditions in past years. The results will help you decide how hot, cold, wet, or windy it might be!

Date:

Astronomy

Jan. 07, 2004 Rise Set
Actual Time 5:36 AM FJT 6:46 PM FJT
Civil Twilight 5:12 AM FJT 7:10 PM FJT
Nautical Twilight 4:44 AM FJT 7:38 PM FJT
Astronomical Twilight 4:14 AM FJT 8:08 PM FJT
Moon 6:33 PM FJT (1/7) 4:47 AM FJT (1/7)
Length of Visible Light 13h 57m
Length of Day
13h 09m
Full, 100% of the Moon is Illuminated
Jan 7
Full
Jan 8
Full
Jan 15
Last Quarter
Jan 22
New
Jan 29
First Quarter

Hourly Weather History & Observations

Time (FJT) Temp. Heat Index Dew Point Humidity Pressure Visibility Wind Dir Wind Speed Gust Speed Precip Events Conditions
12:00 AM 73.4 °F - 71.6 °F 94% 29.65 in 24.9 mi Calm Calm - N/A   Scattered Clouds
1:00 AM 73.4 °F - 71.6 °F 94% 29.62 in 24.9 mi Calm Calm - N/A   Scattered Clouds
2:00 AM 73.4 °F - 71.6 °F 94% 29.62 in 24.9 mi Calm Calm - N/A   Scattered Clouds
3:00 AM 73.4 °F - 71.6 °F 94% 29.59 in 24.9 mi Calm Calm - N/A   Scattered Clouds
4:00 AM 73.4 °F - 71.6 °F 94% 29.59 in 24.9 mi Calm Calm - N/A   Scattered Clouds
5:00 AM 71.6 °F - 69.8 °F 94% 29.59 in 31.1 mi Calm Calm - N/A   Mostly Cloudy
6:00 AM 71.6 °F - 69.8 °F 94% 29.62 in 31.1 mi Calm Calm - N/A   Mostly Cloudy
7:00 AM 73.4 °F - 71.6 °F 94% 29.65 in 31.1 mi Calm Calm - N/A   Scattered Clouds
8:00 AM 78.8 °F - 69.8 °F 74% 29.65 in 31.1 mi Calm Calm - N/A   Partly Cloudy
9:00 AM 82.4 °F 85.4 °F 68.0 °F 62% 29.65 in 31.1 mi ESE 6.9 mph - N/A   Scattered Clouds
10:00 AM 82.4 °F 85.4 °F 68.0 °F 62% 29.68 in 31.1 mi SE 5.8 mph - N/A   Scattered Clouds
11:00 AM 84.2 °F 86.6 °F 66.2 °F 55% 29.68 in 31.1 mi SSE 8.1 mph - N/A   Scattered Clouds
12:00 PM 86.0 °F 89.4 °F 68.0 °F 55% 29.68 in 31.1 mi SSE 4.6 mph - N/A   Scattered Clouds
1:00 PM 84.2 °F 86.6 °F 66.2 °F 55% 29.68 in 31.1 mi SSE 10.4 mph - N/A   Scattered Clouds
2:00 PM 84.2 °F 92.3 °F 75.2 °F 74% 29.65 in 31.1 mi SSE 11.5 mph - N/A   Scattered Clouds
3:00 PM 84.2 °F 87.3 °F 68.0 °F 58% 29.65 in 31.1 mi SSE 8.1 mph - N/A   Scattered Clouds
4:00 PM 84.2 °F 87.3 °F 68.0 °F 58% 29.65 in 31.1 mi SSE 8.1 mph - N/A   Partly Cloudy
5:00 PM 82.4 °F 84.6 °F 66.2 °F 58% 29.68 in 31.1 mi SSE 4.6 mph - N/A   Mostly Cloudy
6:00 PM 82.4 °F 84.6 °F 66.2 °F 58% 29.68 in 31.1 mi Calm Calm - N/A   Mostly Cloudy
7:00 PM 78.8 °F - 68.0 °F 69% 29.71 in 31.1 mi Calm Calm - N/A   Mostly Cloudy
8:00 PM 77.0 °F - 68.0 °F 74% 29.74 in 31.1 mi Calm Calm - N/A   Partly Cloudy
9:00 PM 75.2 °F - 69.8 °F 83% 29.74 in 31.1 mi Calm Calm - N/A   Scattered Clouds
10:00 PM 73.4 °F - 69.8 °F 88% 29.77 in 31.1 mi Calm Calm - N/A   Scattered Clouds
11:00 PM 73.4 °F - 71.6 °F 94% 29.77 in 31.1 mi Calm Calm - N/A   Partly Cloudy